[[{"header":{"parameterUnit":"m.s-1","parameterCategory":1,"la1":30.2991,"la2":30.254,"lo1":-89.0895,"lo2":-89.0444,"dy":0.0017,"dx":0.0017,"nx":28,"ny":28,"refTime":"2025-03-11T09:00:00:Z","depth":0,"parameterNumber":2,"parameterNumberName":"U-component_of_WINDS"},"data":[0,0,0,0,0,0,0,0,0,0,0,0,0,0,0,0,0,0,0,0,0,0,0,0,0,0,0,0,0,0,0,0,0,0,0,0,0,0,0,0,0,0,0,0,0,0,0,0,0,0,0,0,0,0,0,0,0,0,4.4861,4.4862,0,4.4998,4.5,4.5001,4.4933,4.4929,4.4926,4.4922,4.5066,4.5073,4.5081,0,0,0,0,0,0,0,0,0,0,0,0,0,4.4541,4.4547,4.4861,4.4862,4.4864,4.4998,4.5,4.5002,4.4933,4.4929,4.4925,4.4921,4.5064,4.5073,4.5081,0,0,0,0,0,0,0,0,0,0,0,0,0,4.4679,4.4549,4.486,4.4846,4.4846,4.4997,4.5,4.5002,4.4934,4.4929,4.4923,4.4918,4.5061,4.5072,4.5082,4.5257,0,0,4.5115,4.512,0,0,0,0,0,0,0,0,4.4671,4.4691,4.4846,4.4847,4.4848,4.4943,4.494,4.5088,4.4936,4.4901,4.4922,4.4916,4.503,4.5043,4.5081,4.5264,4.527,4.5116,4.5123,4.5127,4.5131,0,0,0,0,0,0,0,4.4662,4.4685,4.4915,4.4849,4.485,4.4833,4.4847,4.4967,4.4994,4.4904,4.4899,4.4916,4.5029,4.507,4.5083,4.5272,4.5116,4.5126,4.5132,4.5136,4.5601,4.5607,0,0,0,0,0,0,4.4652,4.4677,4.4911,4.4919,4.4744,4.4843,4.4859,4.4918,4.4993,4.4999,4.492,4.4912,4.5055,4.5071,4.5088,4.5295,4.5127,4.5138,4.5144,4.5595,4.5602,4.5609,0,0,0,0,0,0,4.4646,4.4674,4.4905,4.4797,4.4825,4.4854,4.4921,4.4923,4.4964,4.5005,4.501,4.4957,4.5051,4.5073,4.5214,4.5299,4.5142,4.5152,4.5588,4.5597,4.5606,4.5711,0,0,0,0,0,0,4.4637,4.4672,4.4739,4.4799,4.4831,4.5029,4.4927,4.493,4.4983,4.4973,4.5041,4.5047,4.5048,4.5199,4.5225,4.5311,4.5161,4.5581,4.5592,4.5603,4.57,4.5722,4.5741,0,0,0,0,0,4.4626,4.4764,4.4742,4.4771,4.4915,4.5034,4.5052,4.505,4.499,4.5057,4.5082,4.5045,4.5286,4.5214,4.5243,4.5333,4.5576,4.5589,4.5602,4.5691,4.5718,4.5741,0,0,0,0,0,0,4.4715,4.4772,4.4748,4.491,4.4968,4.5022,4.5107,4.5079,4.5156,4.5144,4.5139,4.5155,4.53,4.5331,4.525,4.5504,4.5421,4.5441,4.5479,4.5505,4.5525,4.5514,4.517,0,0,0,0,0,4.4753,4.4845,4.489,4.5028,4.5058,4.5078,4.513,4.5122,4.5182,4.5206,4.5242,4.5303,4.5391,4.545,4.5534,4.5704,4.5717,4.5781,4.5801,4.5818,4.5835,4.5924,4.5952,4.5652,4.5652,4.5652,0,0,4.4834,4.4876,4.4935,4.5047,4.5091,4.5185,4.5099,4.5203,4.5273,4.5223,4.5357,4.5386,4.5452,4.5608,4.5678,4.5638,4.592,4.5835,4.5848,4.5856,4.5941,4.5969,4.5994,4.5661,4.566,4.5658,0,0,4.5028,4.5071,4.5189,4.5234,4.53,4.5311,4.534,4.5398,4.5414,4.5549,4.5512,4.5595,4.5749,4.5797,4.5842,4.6051,4.6019,4.6079,4.6187,4.6274,4.6297,4.6318,4.6391,4.6417,4.6096,4.6096,4.6096,0,4.5121,4.5261,4.5254,4.536,4.541,4.5366,4.5486,4.553,4.5621,4.5656,4.561,4.5799,4.5841,4.6006,4.6056,4.6095,4.6126,4.6071,4.6294,4.6315,4.6335,4.6404,4.6431,4.6103,4.6102,4.6101,4.6101,0,4.537,4.5468,4.5555,4.5642,4.5702,4.5815,4.5824,4.5886,4.5873,4.5889,4.6025,4.6074,4.6165,4.6204,4.6194,4.6367,4.6339,4.6294,4.621,4.637,4.6435,4.6461,4.6112,4.611,4.6108,4.6106,0,0,4.5626,4.5704,4.5737,4.5774,4.5842,4.5918,4.6028,4.6116,4.6168,4.6232,4.6323,4.6452,4.6409,4.646,4.6454,4.6531,4.6691,4.6476,4.6477,4.6512,4.6882,4.6914,4.6945,4.667,4.6675,4.6679,4.6875,0,4.5823,4.6014,4.601,4.6187,4.6276,4.6235,4.633,4.6383,4.6401,4.6479,4.6499,4.6589,4.6527,4.6557,4.6631,4.6656,4.6765,4.6642,4.6754,4.6758,4.6737,4.6979,4.7015,4.7198,4.6901,4.6905,4.6908,0,4.608,4.6149,4.6335,4.6387,4.6425,4.6511,4.6589,4.6665,4.6723,4.673,4.6785,4.6766,4.6877,4.679,4.6942,4.6859,4.6904,4.6923,4.693,4.6939,4.6842,4.6994,4.7257,4.7283,4.6949,4.6945,4.6942,0,4.6245,4.6385,4.6514,4.6547,4.6613,4.6673,4.6703,4.6756,4.6808,4.6877,4.691,4.6992,4.7037,4.71,4.7104,4.7041,4.7256,4.7171,4.7265,4.7265,4.7311,4.7308,4.7584,4.7344,4.7343,4.7343,4.7342,0,4.6465,4.658,4.6588,4.6667,4.6794,4.6788,4.6914,4.6938,4.6984,4.7067,4.7037,4.7115,4.7116,4.7196,4.7199,4.7323,4.7344,4.7353,4.7352,4.7354,4.7353,4.7383,4.737,4.735,4.7349,4.7347,4.7346,0,4.6671,4.6682,4.6818,4.6868,4.6883,4.6974,4.7016,4.7091,4.7104,4.7209,4.7234,4.7256,4.7348,4.7357,4.7466,4.7468,4.7616,4.7603,4.7596,4.7594,4.7686,4.7676,4.7989,4.8029,4.7765,4.7768,4.777,0,4.681,4.6897,4.6955,4.7007,4.704,4.7125,4.7177,4.7174,4.723,4.73,4.7366,4.7455,4.7525,4.7674,4.77,4.7782,4.7769,4.7873,4.7781,4.778,4.7768,4.7762,4.7769,4.789,4.7893,4.7896,4.7898,0,4.7056,4.7056,4.7131,4.7208,4.7271,4.7332,4.7389,4.7434,4.7437,4.7501,4.7593,4.7648,4.7756,4.7844,4.7924,4.7954,4.7927,4.7926,4.7952,4.7955,4.7946,4.7949,4.7643,4.7919,4.7917,4.7915,4.7914,4.7913,4.7231,4.7305,4.7356,4.7441,4.7483,4.7536,4.7608,4.7629,4.7706,4.7793,4.7786,4.7888,4.7941,4.8045,4.8081,4.8161,4.8126,4.8164,4.8173,4.8182,4.819,4.7934,4.8176,4.8175,4.8174,4.8174,4.8174,0,4.7473,4.7503,4.7581,4.766,4.7726,4.7693,4.7753,4.7811,4.79,4.7952,4.802,4.8126,4.821,4.8241,4.8323,4.8381,4.837,4.8402,4.8397,4.8404,4.8218,4.8186,4.8409,4.8409,4.8409,4.8409,4.8409,4.8409,4.7606,4.7728,4.7734,4.7877,4.7906,4.8004,4.8041,4.809,4.813,4.8248,4.8317,4.8337,4.838,4.8464,4.8539,4.8546,4.8577,4.8615,4.8616,4.8442,4.8418,4.8395,4.8365,4.8622,4.8622,4.8796,4.8797,4.8798]},{"header":{"parameterUnit":"m.s-1","parameterCategory":1,"la1":30.2991,"la2":30.254,"lo1":-89.0895,"lo2":-89.0444,"dy":0.0017,"dx":0.0017,"nx":28,"ny":28,"refTime":"2025-03-11T09:00:00:Z","depth":0,"parameterNumber":3,"parameterNumberName":"V-component_of_WINDS"},"data":[0,0,0,0,0,0,0,0,0,0,0,0,0,0,0,0,0,0,0,0,0,0,0,0,0,0,0,0,0,0,0,0,0,0,0,0,0,0,0,0,0,0,0,0,0,0,0,0,0,0,0,0,0,0,0,0,0,0,2.0753,2.0753,0,2.0743,2.0743,2.0742,2.0691,2.0689,2.0688,2.0687,2.0677,2.0678,2.0679,0,0,0,0,0,0,0,0,0,0,0,0,0,2.0729,2.0729,2.0753,2.0753,2.0753,2.0743,2.0743,2.0742,2.0691,2.0689,2.0688,2.0686,2.0677,2.0678,2.0679,0,0,0,0,0,0,0,0,0,0,0,0,0,2.0731,2.073,2.0753,2.0726,2.0723,2.0743,2.0743,2.0742,2.0691,2.0689,2.0687,2.0686,2.0676,2.0678,2.0679,2.0724,0,0,2.0683,2.0683,0,0,0,0,0,0,0,0,2.0731,2.0732,2.073,2.0728,2.0725,2.0716,2.073,2.0736,2.0692,2.0703,2.0687,2.0685,2.0691,2.0691,2.0693,2.0723,2.0723,2.0683,2.0684,2.0684,2.0685,0,0,0,0,0,0,0,2.0731,2.0732,2.0749,2.073,2.0727,2.0714,2.0712,2.0731,2.0708,2.0702,2.0698,2.0698,2.069,2.0692,2.0693,2.0723,2.0683,2.0684,2.0685,2.0685,2.0788,2.079,0,0,0,0,0,0,2.0734,2.0732,2.0749,2.0749,2.0723,2.0716,2.0714,2.0721,2.0708,2.0704,2.0699,2.0695,2.0691,2.0691,2.0692,2.0743,2.0684,2.0686,2.0686,2.0786,2.0789,2.0791,0,0,0,0,0,0,2.0734,2.0736,2.075,2.0739,2.074,2.0719,2.0726,2.0722,2.0724,2.0705,2.0701,2.0706,2.069,2.069,2.0716,2.0742,2.0686,2.0687,2.0784,2.0787,2.079,2.0847,0,0,0,0,0,0,2.0734,2.0737,2.0753,2.074,2.0741,2.0774,2.0728,2.0723,2.0726,2.0721,2.0711,2.0707,2.0688,2.0714,2.0717,2.0743,2.0688,2.0781,2.0785,2.0789,2.0842,2.0851,2.0859,0,0,0,0,0,2.0733,2.077,2.0755,2.0757,2.0762,2.0775,2.0776,2.0753,2.0729,2.0745,2.0733,2.0708,2.0739,2.0718,2.072,2.0747,2.078,2.0784,2.0788,2.0839,2.0849,2.0858,0,0,0,0,0,0,2.0788,2.0768,2.075,2.0785,2.0782,2.0767,2.0787,2.0765,2.077,2.0765,2.0736,2.0734,2.0764,2.0758,2.0734,2.0789,2.0755,2.076,2.0792,2.0802,2.081,2.0811,2.0689,0,0,0,0,0,2.0804,2.0816,2.0799,2.0831,2.083,2.0809,2.0814,2.0797,2.0793,2.0792,2.0782,2.0779,2.0788,2.0795,2.0802,2.0841,2.0838,2.0861,2.0869,2.0876,2.0881,2.09,2.091,2.0805,2.0805,2.0805,0,0,2.0837,2.0828,2.0838,2.0841,2.0837,2.0851,2.0808,2.0825,2.0835,2.0794,2.0818,2.081,2.0806,2.0838,2.0851,2.0834,2.0909,2.0881,2.0887,2.0888,2.0905,2.0915,2.0924,2.0808,2.0807,2.0807,0,0,2.0904,2.0899,2.0924,2.0921,2.0915,2.0901,2.0907,2.0895,2.0888,2.0911,2.0881,2.0892,2.0909,2.0907,2.0908,2.0974,2.095,2.0977,2.102,2.1039,2.1047,2.1055,2.1078,2.1086,2.0982,2.0982,2.0982,0,2.0946,2.0966,2.0941,2.0959,2.0961,2.0925,2.095,2.0948,2.0946,2.0948,2.0928,2.0948,2.0942,2.0973,2.0989,2.0991,2.0997,2.0978,2.1048,2.1055,2.1062,2.1083,2.1092,2.0986,2.0985,2.0985,2.0985,0,2.1017,2.1032,2.1053,2.105,2.1055,2.1077,2.1055,2.1063,2.1045,2.1033,2.1056,2.1048,2.1053,2.1059,2.1042,2.1088,2.1077,2.1053,2.1018,2.1075,2.1095,2.1103,2.099,2.0989,2.0988,2.0987,0,0,2.1119,2.1102,2.111,2.1108,2.1099,2.1109,2.113,2.1134,2.1141,2.1141,2.1156,2.1171,2.1149,2.115,2.1133,2.115,2.1202,2.1124,2.1123,2.1138,2.1251,2.1268,2.1278,2.1186,2.1188,2.1189,2.1251,0,2.1183,2.1216,2.1193,2.123,2.1242,2.1208,2.1225,2.1222,2.1211,2.122,2.1208,2.1218,2.1189,2.1189,2.1204,2.1192,2.1224,2.1188,2.1201,2.1201,2.1202,2.1289,2.1307,2.1366,2.1259,2.126,2.1261,0,2.1262,2.1264,2.1302,2.1289,2.1294,2.131,2.1312,2.1321,2.1316,2.1307,2.1308,2.1286,2.1305,2.127,2.1296,2.1272,2.1276,2.1271,2.1272,2.1272,2.1234,2.129,2.1384,2.1393,2.1273,2.1272,2.1271,0,2.1331,2.1343,2.1367,2.1367,2.1353,2.1365,2.136,2.1354,2.1357,2.1359,2.1361,2.1366,2.1368,2.1372,2.1352,2.1329,2.138,2.1344,2.1372,2.1373,2.1384,2.1384,2.148,2.1388,2.1388,2.1388,2.1388,0,2.1404,2.1428,2.1398,2.1413,2.1439,2.1413,2.144,2.1431,2.1425,2.1438,2.1409,2.1421,2.1394,2.1403,2.1387,2.1411,2.1412,2.1405,2.14,2.1407,2.1408,2.1409,2.1404,2.139,2.139,2.1389,2.1389,0,2.1486,2.1466,2.149,2.1475,2.1472,2.1492,2.1479,2.1492,2.1479,2.1495,2.1497,2.1477,2.1487,2.1467,2.1475,2.1464,2.1496,2.1486,2.1498,2.1494,2.1524,2.1521,2.1623,2.1635,2.1537,2.1538,2.1539,0,2.1533,2.1551,2.1538,2.1544,2.154,2.155,2.1554,2.1529,2.1534,2.153,2.1543,2.155,2.1555,2.1572,2.1558,2.1563,2.1552,2.1588,2.1553,2.1559,2.1552,2.1551,2.1552,2.1595,2.1596,2.1597,2.1598,0,2.1619,2.1609,2.1615,2.1618,2.1623,2.1624,2.1623,2.163,2.1604,2.1611,2.162,2.1623,2.163,2.1638,2.164,2.1635,2.1612,2.1609,2.1615,2.1622,2.1628,2.1625,2.1517,2.1606,2.1606,2.1605,2.1604,2.1604,2.1685,2.1698,2.1691,2.1699,2.1695,2.1695,2.1706,2.1695,2.1702,2.1705,2.1691,2.1703,2.1697,2.1698,2.1695,2.1705,2.1689,2.1699,2.1701,2.1704,2.1708,2.1627,2.1705,2.1705,2.1704,2.1704,2.1704,0,2.1768,2.1762,2.1769,2.1768,2.1775,2.1752,2.175,2.1757,2.1768,2.1765,2.1769,2.178,2.1787,2.1774,2.1779,2.1789,2.1778,2.1791,2.1789,2.1789,2.1722,2.1716,2.1799,2.1799,2.1799,2.1799,2.1799,2.1799,2.1813,2.1835,2.1823,2.1843,2.1837,2.1848,2.1849,2.1848,2.1845,2.1858,2.1864,2.1855,2.1847,2.1852,2.1857,2.1853,2.1856,2.1872,2.1864,2.1803,2.1793,2.1784,2.1778,2.1873,2.1873,2.1929,2.193,2.193]}]]